Total_Precipitation_Accumulation
1.99 2.06 2.02 2.02 1.99 1.88 1.85 2.00 2.09 1.94 1.79 1.62 1.48 1.40 1.41 1.34 1.44 1.28 1.23 1.17 1.00 0.94 0.93 0.89 1.05 1.36 1.57 1.78 1.96 1.97 2.07 2.16 2.24 2.35 2.30 2.20 2.16 2.00
1.99 2.09 2.12 2.13 2.14 2.06 1.93 1.91 1.87 1.90 1.82 1.61 1.42 1.33 1.45 1.33 1.44 1.26 1.22 1.37 1.17 1.07 1.01 0.90 0.87 0.92 1.05 1.24 1.45 1.58 1.62 1.67 1.75 1.97 2.14 2.14 2.03 1.87
1.78 1.89 2.02 2.11 2.22 2.23 2.22 2.10 1.95 1.90 1.82 1.66 1.46 1.33 1.47 1.52 1.45 1.40 1.28 1.22 1.22 1.19 1.08 1.02 0.94 0.81 0.87 0.97 1.14 1.30 1.39 1.28 1.20 1.33 1.56 1.66 1.83 1.84
1.62 1.60 1.67 1.78 1.94 2.09 2.17 2.11 2.09 1.99 1.90 1.87 1.69 1.44 1.35 1.44 1.49 1.58 1.50 1.28 1.25 1.33 1.25 1.13 1.05 0.90 0.80 0.83 0.94 1.01 1.06 1.09 0.99 0.95 1.04 1.13 1.22 1.40
1.40 1.37 1.38 1.47 1.62 1.77 1.86 1.93 2.04 2.08 2.08 1.97 1.88 1.70 1.45 1.47 1.56 1.60 1.63 1.69 1.44 1.34 1.35 1.29 1.19 1.09 1.01 0.92 0.89 0.91 0.88 0.91 0.91 0.83 0.81 0.92 0.96 1.09
1.10 1.11 1.15 1.20 1.29 1.43 1.57 1.79 1.97 2.08 2.14 2.13 2.02 1.80 1.64 1.61 1.61 1.63 1.72 1.79 1.75 1.51 1.41 1.33 1.36 1.31 1.17 1.07 0.99 0.96 0.96 0.91 0.91 0.90 0.82 0.78 0.81 0.84
0.90 0.81 0.82 0.90 0.93 1.02 1.06 1.35 1.61 1.83 1.95 2.03 2.00 1.86 1.65 1.54 1.42 1.47 1.61 1.78 1.85 1.81 1.71 1.44 1.37 1.33 1.28 1.22 1.13 1.05 1.01 1.03 0.99 0.96 0.96 0.90 0.91 0.88
0.79 0.72 0.70 0.74 0.66 0.63 0.67 0.90 1.19 1.39 1.58 1.76 1.82 1.70 1.56 1.47 1.52 1.52 1.53 1.60 1.63 1.56 1.56 1.57 1.49 1.40 1.33 1.26 1.26 1.24 1.16 1.11 1.13 1.08 1.07 1.05 1.04 1.08
0.81 0.83 0.75 0.71 0.79 0.70 0.64 0.71 0.80 0.92 1.08 1.34 1.57 1.56 1.65 1.58 1.49 1.43 1.45 1.49 1.49 1.55 1.55 1.56 1.46 1.37 1.25 1.21 1.34 1.27 1.27 1.22 1.23 1.26 1.18 1.19 1.16 1.15
0.86 0.94 0.95 0.89 0.87 0.95 0.89 0.90 0.87 0.80 0.87 0.79 1.00 1.38 1.53 1.59 1.54 1.56 1.66 1.59 1.46 1.50 1.52 1.54 1.46 1.34 1.20 1.11 1.21 1.13 1.07 1.07 1.14 1.31 1.40 1.38 1.39 1.36
0.79 0.91 0.95 0.90 0.94 1.00 1.12 1.19 1.11 0.96 1.07 1.07 0.99 1.10 1.24 1.30 1.41 1.51 1.57 1.50 1.46 1.38 1.28 1.25 1.21 1.24 1.28 1.19 1.15 1.19 1.09 1.03 1.00 1.02 1.14 1.21 1.32 1.47
0.82 0.88 1.02 0.95 0.93 0.90 0.99 1.13 1.12 0.99 0.87 0.91 0.88 0.78 0.72 0.82 1.02 1.19 1.48 1.59 1.54 1.44 1.24 1.17 1.19 1.19 1.23 1.16 1.06 1.08 1.06 1.11 1.08 1.01 1.06 1.14 1.22 1.28
0.94 0.99 0.96 1.05 0.89 0.85 0.86 0.88 0.97 0.96 0.93 0.98 1.05 0.95 0.83 0.78 0.82 0.90 1.11 1.33 1.46 1.39 1.26 1.14 1.16 1.19 1.13 1.00 0.96 0.98 0.98 0.96 0.98 1.03 1.08 1.19 1.27 1.20
0.83 0.83 0.80 0.89 0.75 0.67 0.63 0.69 0.76 0.82 0.90 1.02 1.02 0.98 0.97 0.91 0.89 0.91 0.96 1.06 1.16 1.23 1.24 1.21 1.16 1.14 1.12 0.99 0.94 0.95 0.95 0.93 0.89 0.91 0.95 1.18 1.35 1.39
0.55 0.64 0.66 0.64 0.60 0.53 0.58 0.63 0.65 0.68 0.79 0.88 0.89 0.86 0.86 0.90 0.90 0.90 0.92 0.96 0.96 0.91 0.90 0.98 1.09 1.13 1.15 1.08 0.96 0.95 0.95 0.91 0.84 0.83 0.89 0.95 1.04 1.21
0.46 0.49 0.49 0.49 0.50 0.52 0.55 0.60 0.65 0.70 0.73 0.76 0.76 0.78 0.80 0.87 0.93 0.90 0.89 0.94 0.99 0.96 0.91 0.94 1.02 1.14 1.17 1.10 1.07 1.01 0.99 0.94 0.85 0.82 0.82 0.88 0.98 1.08
0.55 0.51 0.47 0.48 0.50 0.57 0.60 0.60 0.63 0.67 0.67 0.66 0.69 0.71 0.71 0.76 0.81 0.82 0.83 0.86 0.87 0.84 0.88 0.95 1.02 1.07 1.08 1.10 1.14 1.09 1.07 1.06 1.03 0.99 0.96 0.92 0.92 0.99
0.55 0.62 0.64 0.69 0.72 0.71 0.69 0.61 0.57 0.57 0.63 0.69 0.69 0.70 0.71 0.70 0.74 0.77 0.79 0.84 0.85 0.78 0.73 0.78 0.90 1.01 1.01 0.94 0.90 0.92 0.95 0.98 1.04 1.10 1.06 1.01 0.95 0.97
0.51 0.68 0.69 0.67 0.64 0.63 0.60 0.54 0.48 0.46 0.48 0.57 0.67 0.75 0.76 0.76 0.79 0.83 0.81 0.78 0.77 0.77 0.73 0.69 0.73 0.85 0.92 0.82 0.74 0.73 0.76 0.81 0.91 0.96 0.99 0.94 0.89 0.93
0.48 0.58 0.60 0.59 0.51 0.46 0.41 0.36 0.35 0.34 0.34 0.39 0.46 0.55 0.71 0.82 0.90 0.91 0.92 0.93 0.92 0.88 0.83 0.74 0.67 0.68 0.77 0.79 0.72 0.63 0.63 0.70 0.80 0.84 0.84 0.87 0.89 0.95
0.28 0.30 0.32 0.34 0.33 0.30 0.28 0.28 0.29 0.29 0.30 0.32 0.35 0.41 0.51 0.65 0.83 0.93 0.94 0.98 0.97 0.97 0.95 0.85 0.81 0.87 0.82 0.85 0.83 0.64 0.56 0.60 0.68 0.73 0.77 0.84 0.86 0.83
0.19 0.20 0.20 0.21 0.22 0.23 0.23 0.24 0.27 0.29 0.27 0.30 0.36 0.42 0.52 0.58 0.64 0.74 0.86 0.89 0.82 0.79 0.80 0.83 0.87 0.90 0.88 0.93 0.90 0.76 0.66 0.61 0.66 0.74 0.77 0.80 0.80 0.78
0.20 0.20 0.20 0.20 0.23 0.28 0.29 0.27 0.27 0.29 0.29 0.30 0.35 0.42 0.50 0.60 0.65 0.68 0.70 0.74 0.77 0.80 0.81 0.82 0.83 0.85 0.87 0.91 0.99 0.97 0.85 0.74 0.71 0.74 0.76 0.86 0.82 0.72